TimeMDT,TemperatureF,Dew PointF,Humidity,Sea Level PressureIn,VisibilityMPH,Wind Direction,Wind SpeedMPH,Gust SpeedMPH,PrecipitationIn,Events,Conditions,WindDirDegrees,DateUTC
12:15 AM,55.4,21.2,26,30.42,10.0,ESE,4.6,-,N/A,,Clear,110,2013-06-12 06:15:00
12:35 AM,55.4,21.2,26,30.42,10.0,SE,6.9,-,N/A,,Clear,130,2013-06-12 06:35:00
12:55 AM,55.4,23.0,29,30.41,10.0,ESE,5.8,-,N/A,,Clear,110,2013-06-12 06:55:00
1:15 AM,53.6,21.2,28,30.41,10.0,SE,4.6,-,N/A,,Clear,130,2013-06-12 07:15:00
1:35 AM,53.6,21.2,28,30.41,10.0,ESE,6.9,-,N/A,,Clear,120,2013-06-12 07:35:00
1:55 AM,53.6,21.2,28,30.41,10.0,SE,5.8,-,N/A,,Clear,130,2013-06-12 07:55:00
2:15 AM,53.6,21.2,28,30.41,10.0,ESE,4.6,-,N/A,,Clear,120,2013-06-12 08:15:00
2:35 AM,53.6,21.2,28,30.41,10.0,SE,5.8,-,N/A,,Clear,140,2013-06-12 08:35:00
2:55 AM,53.6,21.2,28,30.41,10.0,ESE,9.2,-,N/A,,Clear,120,2013-06-12 08:55:00
3:15 AM,53.6,21.2,28,30.40,10.0,ESE,6.9,-,N/A,,Clear,120,2013-06-12 09:15:00
3:35 AM,51.8,21.2,30,30.40,10.0,SE,4.6,-,N/A,,Clear,140,2013-06-12 09:35:00
3:55 AM,51.8,21.2,30,30.40,10.0,SE,6.9,-,N/A,,Clear,140,2013-06-12 09:55:00
4:15 AM,51.8,21.2,30,30.40,10.0,SE,6.9,-,N/A,,Clear,130,2013-06-12 10:15:00
4:35 AM,53.6,21.2,28,30.39,10.0,SE,6.9,-,N/A,,Clear,130,2013-06-12 10:35:00
4:55 AM,53.6,21.2,28,30.39,10.0,SE,6.9,-,N/A,,Clear,130,2013-06-12 10:55:00
5:15 AM,53.6,21.2,28,30.39,10.0,ESE,6.9,-,N/A,,Clear,110,2013-06-12 11:15:00
5:35 AM,53.6,21.2,28,30.40,10.0,ESE,4.6,-,N/A,,Clear,120,2013-06-12 11:35:00
5:55 AM,53.6,21.2,28,30.41,10.0,ESE,6.9,-,N/A,,Clear,110,2013-06-12 11:55:00
6:15 AM,53.6,21.2,28,30.41,10.0,SE,5.8,-,N/A,,Clear,130,2013-06-12 12:15:00
6:35 AM,51.8,23.0,33,30.42,10.0,SE,5.8,-,N/A,,Clear,130,2013-06-12 12:35:00
6:55 AM,53.6,23.0,30,30.43,10.0,SE,4.6,-,N/A,,Clear,130,2013-06-12 12:55:00
7:15 AM,53.6,24.8,33,30.43,10.0,East,3.5,-,N/A,,Clear,100,2013-06-12 13:15:00
7:35 AM,55.4,23.0,29,30.44,10.0,ESE,3.5,-,N/A,,Clear,110,2013-06-12 13:35:00
7:55 AM,59.0,26.6,29,30.43,10.0,Calm,Calm,-,N/A,,Clear,0,2013-06-12 13:55:00
8:15 AM,60.8,28.4,29,30.44,10.0,Calm,Calm,-,N/A,,Clear,0,2013-06-12 14:15:00
8:35 AM,62.6,30.2,30,30.44,10.0,Calm,Calm,-,N/A,,Clear,0,2013-06-12 14:35:00
8:55 AM,62.6,30.2,30,30.44,10.0,Calm,Calm,-,N/A,,Clear,0,2013-06-12 14:55:00
9:15 AM,66.2,28.4,24,30.44,10.0,Calm,Calm,-,N/A,,Clear,0,2013-06-12 15:15:00
9:35 AM,68.0,26.6,21,30.43,10.0,Calm,Calm,-,N/A,,Clear,0,2013-06-12 15:35:00
9:55 AM,69.8,21.2,16,30.43,10.0,Calm,Calm,-,N/A,,Clear,0,2013-06-12 15:55:00
10:15 AM,71.6,24.8,17,30.43,10.0,Calm,Calm,-,N/A,,Clear,0,2013-06-12 16:15:00
10:35 AM,71.6,19.4,14,30.43,10.0,SSE,3.5,-,N/A,,Clear,150,2013-06-12 16:35:00
10:55 AM,71.6,19.4,14,30.43,10.0,South,8.1,20.7,N/A,,Clear,180,2013-06-12 16:55:00
11:15 AM,71.6,17.6,13,30.43,10.0,South,10.4,25.3,N/A,,Clear,170,2013-06-12 17:15:00
11:35 AM,73.4,17.6,12,30.42,10.0,South,11.5,23.0,N/A,,Clear,170,2013-06-12 17:35:00
11:55 AM,73.4,19.4,13,30.42,10.0,South,17.3,23.0,N/A,,Clear,190,2013-06-12 17:55:00
12:35 PM,75.2,19.4,12,30.43,10.0,South,15.0,20.7,N/A,,Clear,170,2013-06-12 18:35:00
12:55 PM,75.2,19.4,12,30.42,10.0,South,11.5,21.9,N/A,,Clear,190,2013-06-12 18:55:00
1:15 PM,75.2,17.6,11,30.42,10.0,South,12.7,21.9,N/A,,Clear,190,2013-06-12 19:15:00
1:35 PM,77.0,19.4,12,30.42,10.0,South,11.5,19.6,N/A,,Clear,190,2013-06-12 19:35:00
1:55 PM,77.0,17.6,11,30.41,10.0,South,13.8,25.3,N/A,,Clear,190,2013-06-12 19:55:00
2:15 PM,77.0,17.6,11,30.40,10.0,SSW,18.4,28.8,N/A,,Clear,200,2013-06-12 20:15:00
2:35 PM,77.0,17.6,11,30.41,10.0,SSE,9.2,25.3,N/A,,Clear,150,2013-06-12 20:35:00
2:55 PM,77.0,17.6,11,30.40,10.0,South,11.5,16.1,N/A,,Clear,190,2013-06-12 20:55:00
3:15 PM,77.0,19.4,12,30.40,10.0,SW,10.4,20.7,N/A,,Clear,230,2013-06-12 21:15:00
3:35 PM,77.0,19.4,12,30.40,10.0,South,9.2,17.3,N/A,,Clear,190,2013-06-12 21:35:00
3:55 PM,77.0,19.4,12,30.40,10.0,West,12.7,27.6,N/A,,Clear,260,2013-06-12 21:55:00
4:15 PM,78.8,15.8,9,30.40,10.0,West,16.1,24.2,N/A,,Clear,260,2013-06-12 22:15:00
4:35 PM,75.2,14.0,10,30.40,10.0,SW,18.4,24.2,N/A,,Clear,230,2013-06-12 22:35:00
4:55 PM,77.0,15.8,10,30.40,10.0,West,18.4,26.5,N/A,,Clear,260,2013-06-12 22:55:00
5:15 PM,77.0,15.8,10,30.40,10.0,WSW,13.8,24.2,N/A,,Clear,250,2013-06-12 23:15:00
5:35 PM,73.4,14.0,10,30.40,10.0,West,16.1,25.3,N/A,,Clear,260,2013-06-12 23:35:00
5:55 PM,73.4,12.2,10,30.40,10.0,SW,16.1,25.3,N/A,,Clear,230,2013-06-12 23:55:00
6:15 PM,73.4,14.0,10,30.40,10.0,SW,15.0,24.2,N/A,,Clear,230,2013-06-13 00:15:00
6:35 PM,71.6,14.0,11,30.41,10.0,SW,11.5,21.9,N/A,,Clear,230,2013-06-13 00:35:00
6:55 PM,73.4,15.8,11,30.42,10.0,WSW,12.7,18.4,N/A,,Clear,240,2013-06-13 00:55:00
7:15 PM,71.6,17.6,13,30.42,10.0,WSW,11.5,17.3,N/A,,Clear,240,2013-06-13 01:15:00
7:35 PM,71.6,15.8,12,30.43,10.0,SSW,9.2,18.4,N/A,,Clear,210,2013-06-13 01:35:00
7:55 PM,69.8,15.8,13,30.43,10.0,South,5.8,-,N/A,,Clear,190,2013-06-13 01:55:00
8:15 PM,69.8,15.8,13,30.43,10.0,South,4.6,-,N/A,,Clear,190,2013-06-13 02:15:00
8:35 PM,68.0,17.6,15,30.43,10.0,Calm,Calm,-,N/A,,Clear,0,2013-06-13 02:35:00
8:55 PM,64.4,19.4,18,30.43,10.0,Calm,Calm,-,N/A,,Clear,0,2013-06-13 02:55:00
9:15 PM,64.4,17.6,16,30.43,10.0,ESE,5.8,-,N/A,,Clear,110,2013-06-13 03:15:00
9:35 PM,64.4,19.4,18,30.43,10.0,ESE,8.1,-,N/A,,Clear,110,2013-06-13 03:35:00
9:55 PM,62.6,19.4,19,30.43,10.0,ESE,5.8,-,N/A,,Clear,110,2013-06-13 03:55:00
10:15 PM,62.6,19.4,19,30.43,10.0,ESE,6.9,-,N/A,,Clear,120,2013-06-13 04:15:00
10:35 PM,62.6,21.2,20,30.43,10.0,SE,4.6,-,N/A,,Clear,130,2013-06-13 04:35:00
10:55 PM,60.8,21.2,22,30.43,10.0,SE,4.6,-,N/A,,Clear,140,2013-06-13 04:55:00
11:15 PM,60.8,23.0,23,30.43,10.0,East,4.6,-,N/A,,Clear,90,2013-06-13 05:15:00
11:35 PM,60.8,23.0,23,30.43,10.0,SE,4.6,-,N/A,,Clear,130,2013-06-13 05:35:00
11:55 PM,60.8,21.2,22,30.42,10.0,SE,4.6,-,N/A,,Clear,130,2013-06-13 05:55:00